BAW296 LEZL-LPPR

Flight info

Callsign BAW296
Flight time 0h 46m
Altitude 32000
Route SANTA M744 LASIB DCT ABLEG
Aircraft A21N/M-SDE2E3FGHIJ1RWXY/LB1

Departure

Time 2026-04-17 11:55
Airport Seville Airport (LEZL)

Arrival

Time 2026-04-17 12:42
Airport Francisco de Sá Carneiro Airport (LPPR)
Time Latitude Longitude Altitude Speed Heading
2026-04-17 11:02 37.42304 -5.89667 99 ft 0 kts 82°
2026-04-17 11:46 37.42302 -5.89678 99 ft 1 kts 86°
2026-04-17 11:46 37.42303 -5.89702 99 ft 1 kts 108°
2026-04-17 11:46 37.42312 -5.89721 99 ft 3 kts 146°
2026-04-17 11:47 37.42325 -5.89727 100 ft 1 kts 189°
2026-04-17 11:47 37.42328 -5.89727 100 ft 1 kts 191°
2026-04-17 11:49 37.42319 -5.89729 100 ft 3 kts 191°
2026-04-17 11:50 37.42290 -5.89736 99 ft 6 kts 196°
2026-04-17 11:50 37.42251 -5.89775 100 ft 8 kts 223°
2026-04-17 11:50 37.42204 -5.89832 99 ft 11 kts 226°
2026-04-17 11:50 37.42146 -5.89907 99 ft 13 kts 224°
2026-04-17 11:51 37.42075 -5.89992 102 ft 15 kts 226°
2026-04-17 11:51 37.42040 -5.90089 100 ft 10 kts 220°
2026-04-17 11:51 37.41980 -5.90141 101 ft 13 kts 259°
2026-04-17 11:51 37.41979 -5.90262 100 ft 15 kts 271°
2026-04-17 11:52 37.41980 -5.90400 100 ft 17 kts 268°
2026-04-17 11:52 37.41978 -5.90553 99 ft 18 kts 271°
2026-04-17 11:52 37.41980 -5.90717 98 ft 19 kts 270°
2026-04-17 11:52 37.41979 -5.90890 96 ft 20 kts 270°
2026-04-17 11:53 37.41977 -5.91076 95 ft 22 kts 269°
2026-04-17 11:53 37.41974 -5.91255 94 ft 12 kts 258°
2026-04-17 11:53 37.41907 -5.91318 96 ft 15 kts 171°
2026-04-17 11:53 37.41830 -5.91227 95 ft 17 kts 121°
2026-04-17 11:54 37.41788 -5.91122 97 ft 6 kts 94°
2026-04-17 11:54 37.41787 -5.91049 98 ft 20 kts 89°
2026-04-17 11:54 37.41791 -5.90543 101 ft 94 kts 89°
2026-04-17 11:54 37.41795 -5.89473 105 ft 151 kts 90°
2026-04-17 11:55 37.41798 -5.88079 537 ft 160 kts 91°
2026-04-17 11:55 37.41764 -5.86675 1158 ft 163 kts 91°
2026-04-17 11:55 37.41749 -5.85114 1638 ft 188 kts 90°
2026-04-17 11:55 37.41740 -5.83409 2252 ft 208 kts 90°
2026-04-17 11:56 37.41735 -5.81481 2846 ft 235 kts 89°
2026-04-17 11:56 37.42206 -5.79420 3398 ft 260 kts 57°
2026-04-17 11:56 37.43571 -5.77894 4225 ft 270 kts 25°
2026-04-17 11:56 37.45422 -5.77465 5119 ft 278 kts 354°
2026-04-17 11:57 37.47222 -5.78291 6036 ft 281 kts 323°
2026-04-17 11:57 37.48471 -5.80171 6946 ft 283 kts 292°
2026-04-17 11:57 37.48810 -5.82566 7806 ft 282 kts 262°
2026-04-17 11:57 37.48269 -5.84946 8732 ft 284 kts 248°
2026-04-17 11:58 37.47814 -5.87379 9653 ft 291 kts 269°
2026-04-17 11:58 37.48281 -5.89879 10419 ft 304 kts 295°
2026-04-17 11:58 37.49390 -5.92263 10842 ft 327 kts 302°
2026-04-17 11:58 37.50645 -5.94723 11469 ft 339 kts 301°
2026-04-17 11:59 37.51905 -5.97250 12338 ft 342 kts 301°
2026-04-17 11:59 37.53143 -5.99825 13282 ft 345 kts 300°
2026-04-17 11:59 37.54364 -6.02436 14165 ft 348 kts 300°
2026-04-17 11:59 37.55595 -6.05082 14930 ft 352 kts 300°
2026-04-17 12:00 37.56841 -6.07760 15678 ft 357 kts 300°
2026-04-17 12:00 37.58104 -6.10484 16419 ft 362 kts 299°
2026-04-17 12:00 37.59386 -6.13244 17166 ft 367 kts 299°
2026-04-17 12:00 37.60666 -6.16059 17893 ft 373 kts 298°
2026-04-17 12:01 37.61947 -6.18930 18606 ft 377 kts 298°
2026-04-17 12:01 37.63240 -6.21831 19220 ft 382 kts 297°
2026-04-17 12:01 37.64555 -6.24755 19879 ft 385 kts 297°
2026-04-17 12:01 37.65873 -6.27713 20553 ft 388 kts 297°
2026-04-17 12:02 37.67200 -6.30690 21219 ft 390 kts 297°
2026-04-17 12:02 37.68543 -6.33687 21885 ft 393 kts 297°
2026-04-17 12:02 37.69864 -6.36670 22531 ft 396 kts 298°
2026-04-17 12:02 37.71216 -6.39717 23177 ft 399 kts 297°
2026-04-17 12:03 37.72568 -6.42788 23790 ft 402 kts 297°
2026-04-17 12:03 37.73941 -6.45882 24318 ft 405 kts 297°
2026-04-17 12:03 37.75327 -6.49006 24833 ft 409 kts 297°
2026-04-17 12:03 37.76717 -6.52150 25313 ft 412 kts 297°
2026-04-17 12:04 37.78113 -6.55329 25817 ft 415 kts 297°
2026-04-17 12:04 37.79520 -6.58528 26304 ft 418 kts 297°
2026-04-17 12:04 37.80940 -6.61743 26762 ft 421 kts 297°
2026-04-17 12:04 37.82370 -6.64983 27237 ft 423 kts 297°
2026-04-17 12:05 37.83807 -6.68252 27680 ft 427 kts 297°
2026-04-17 12:05 37.85255 -6.71546 28111 ft 430 kts 297°
2026-04-17 12:05 37.86710 -6.74859 28550 ft 433 kts 297°
2026-04-17 12:05 37.88185 -6.78194 28965 ft 436 kts 297°
2026-04-17 12:06 37.89658 -6.81557 29377 ft 438 kts 296°
2026-04-17 12:06 37.91130 -6.84951 29790 ft 441 kts 296°
2026-04-17 12:06 37.92604 -6.88362 30243 ft 442 kts 296°
2026-04-17 12:06 37.94092 -6.91763 30710 ft 441 kts 296°
2026-04-17 12:07 37.95582 -6.95157 31157 ft 440 kts 296°
2026-04-17 12:07 37.97063 -6.98559 31592 ft 440 kts 296°
2026-04-17 12:07 37.98535 -7.01945 32019 ft 439 kts 296°
2026-04-17 12:07 38.00010 -7.05329 32467 ft 438 kts 296°
2026-04-17 12:08 38.01428 -7.08734 32866 ft 436 kts 291°
2026-04-17 12:08 38.02422 -7.12353 33116 ft 433 kts 281°
2026-04-17 12:08 38.04631 -7.19434 33129 ft 440 kts 303°
2026-04-17 12:09 38.06683 -7.22327 33128 ft 445 kts 316°
2026-04-17 12:09 38.09239 -7.24556 33119 ft 447 kts 330°
2026-04-17 12:09 38.15095 -7.27293 33116 ft 449 kts 340°
2026-04-17 12:10 38.21033 -7.29791 33111 ft 449 kts 339°
2026-04-17 12:10 38.26954 -7.32353 33112 ft 449 kts 339°
2026-04-17 12:11 38.32870 -7.34931 33112 ft 449 kts 339°
2026-04-17 12:12 38.41726 -7.38793 33112 ft 449 kts 339°
2026-04-17 12:12 38.47633 -7.41376 33116 ft 449 kts 339°
2026-04-17 12:13 38.53533 -7.43961 33120 ft 449 kts 339°
2026-04-17 12:13 38.59438 -7.46553 33114 ft 449 kts 339°
2026-04-17 12:14 38.65345 -7.49152 33118 ft 449 kts 339°
2026-04-17 12:14 38.71247 -7.51752 33121 ft 449 kts 338°
2026-04-17 12:15 38.77152 -7.54358 33110 ft 449 kts 338°
2026-04-17 12:15 38.83061 -7.56965 33118 ft 449 kts 338°
2026-04-17 12:16 38.88964 -7.59577 33131 ft 449 kts 338°
2026-04-17 12:16 38.94824 -7.62181 33127 ft 449 kts 338°
2026-04-17 12:17 39.00727 -7.64799 33125 ft 448 kts 338°
2026-04-17 12:17 39.06625 -7.67427 33131 ft 448 kts 338°
2026-04-17 12:18 39.12515 -7.70049 33140 ft 449 kts 338°
2026-04-17 12:18 39.18427 -7.72690 33128 ft 449 kts 338°
2026-04-17 12:19 39.24323 -7.75334 33132 ft 449 kts 338°
2026-04-17 12:19 39.30231 -7.77981 33132 ft 449 kts 338°
2026-04-17 12:20 39.36124 -7.80645 33138 ft 449 kts 337°
2026-04-17 12:20 39.42025 -7.83294 33131 ft 449 kts 338°
2026-04-17 12:21 39.46892 -7.85466 32898 ft 439 kts 338°
2026-04-17 12:21 39.49767 -7.86765 32609 ft 436 kts 338°
2026-04-17 12:21 39.52618 -7.88052 32257 ft 433 kts 337°
2026-04-17 12:21 39.55458 -7.89338 31976 ft 431 kts 337°
2026-04-17 12:22 39.59194 -7.91028 31480 ft 427 kts 337°
2026-04-17 12:22 39.61991 -7.92294 30999 ft 425 kts 337°
2026-04-17 12:22 39.63876 -7.93148 30666 ft 424 kts 337°
2026-04-17 12:22 39.66648 -7.94406 30183 ft 422 kts 337°
2026-04-17 12:23 39.69414 -7.95665 29611 ft 420 kts 337°
2026-04-17 12:23 39.72174 -7.96919 29054 ft 418 kts 337°
2026-04-17 12:23 39.74906 -7.98160 28545 ft 416 kts 337°
2026-04-17 12:23 39.77629 -7.99396 28061 ft 413 kts 337°
2026-04-17 12:24 39.80328 -8.00644 27565 ft 411 kts 336°
2026-04-17 12:24 39.83012 -8.01884 27063 ft 409 kts 337°
2026-04-17 12:24 39.85695 -8.03103 26564 ft 407 kts 337°
2026-04-17 12:24 39.88366 -8.04323 26063 ft 406 kts 337°
2026-04-17 12:25 39.90978 -8.05531 25609 ft 404 kts 337°
2026-04-17 12:25 39.93626 -8.06747 25141 ft 402 kts 338°
2026-04-17 12:25 39.96266 -8.07943 24652 ft 401 kts 338°
2026-04-17 12:25 39.98899 -8.09132 24163 ft 400 kts 338°
2026-04-17 12:26 40.01531 -8.10328 23679 ft 400 kts 338°
2026-04-17 12:26 40.04148 -8.11531 23122 ft 399 kts 338°
2026-04-17 12:26 40.06755 -8.12732 22598 ft 395 kts 338°
2026-04-17 12:26 40.09325 -8.13928 22081 ft 390 kts 338°
2026-04-17 12:27 40.11868 -8.15101 21590 ft 386 kts 338°
2026-04-17 12:27 40.14379 -8.16265 21102 ft 382 kts 338°
2026-04-17 12:27 40.16871 -8.17429 20634 ft 378 kts 338°
2026-04-17 12:27 40.19338 -8.18563 20191 ft 374 kts 338°
2026-04-17 12:28 40.21777 -8.19686 19764 ft 369 kts 338°
2026-04-17 12:28 40.24188 -8.20787 19345 ft 366 kts 338°
2026-04-17 12:28 40.26576 -8.21877 18914 ft 361 kts 338°
2026-04-17 12:28 40.28934 -8.22964 18524 ft 357 kts 338°
2026-04-17 12:29 40.31262 -8.24044 18092 ft 353 kts 338°
2026-04-17 12:29 40.33557 -8.25109 17677 ft 348 kts 338°
2026-04-17 12:29 40.35827 -8.26159 17267 ft 345 kts 338°
2026-04-17 12:29 40.38097 -8.27212 16870 ft 346 kts 338°
2026-04-17 12:30 40.40368 -8.28263 16498 ft 346 kts 338°
2026-04-17 12:30 40.42635 -8.29316 16130 ft 346 kts 338°
2026-04-17 12:30 40.44906 -8.30364 15769 ft 345 kts 338°
2026-04-17 12:30 40.47172 -8.31412 15405 ft 345 kts 338°
2026-04-17 12:31 40.49431 -8.32460 15031 ft 345 kts 338°
2026-04-17 12:31 40.51698 -8.33514 14660 ft 346 kts 338°
2026-04-17 12:31 40.53969 -8.34570 14307 ft 345 kts 338°
2026-04-17 12:31 40.56212 -8.35625 13939 ft 340 kts 338°
2026-04-17 12:32 40.58426 -8.36666 13527 ft 336 kts 338°
2026-04-17 12:32 40.60610 -8.37699 13147 ft 331 kts 337°
2026-04-17 12:32 40.62762 -8.38716 12785 ft 326 kts 338°
2026-04-17 12:32 40.64884 -8.39711 12426 ft 321 kts 338°
2026-04-17 12:33 40.66973 -8.40698 12080 ft 317 kts 338°
2026-04-17 12:33 40.69042 -8.41671 11735 ft 316 kts 338°
2026-04-17 12:33 40.71116 -8.42635 11401 ft 317 kts 338°
2026-04-17 12:33 40.73152 -8.43739 11052 ft 315 kts 331°
2026-04-17 12:34 40.75083 -8.45042 10809 ft 307 kts 330°
2026-04-17 12:34 40.76953 -8.46335 10519 ft 302 kts 329°
2026-04-17 12:34 40.78810 -8.47623 10118 ft 302 kts 330°
2026-04-17 12:34 40.80670 -8.48911 9732 ft 301 kts 330°
2026-04-17 12:35 40.82521 -8.50190 9323 ft 300 kts 330°
2026-04-17 12:35 40.84357 -8.51459 8970 ft 297 kts 329°
2026-04-17 12:35 40.86192 -8.52731 8587 ft 297 kts 329°
2026-04-17 12:35 40.88013 -8.53993 8120 ft 295 kts 329°
2026-04-17 12:37 41.00506 -8.61894 5164 ft 280 kts 347°
2026-04-17 12:37 41.02423 -8.62356 4853 ft 280 kts 348°
2026-04-17 12:38 41.04338 -8.62827 4519 ft 281 kts 348°
2026-04-17 12:38 41.06235 -8.63309 4136 ft 281 kts 348°
2026-04-17 12:38 41.08121 -8.63786 3889 ft 267 kts 348°
2026-04-17 12:38 41.09880 -8.64231 3640 ft 248 kts 348°
2026-04-17 12:39 41.11516 -8.64652 3307 ft 235 kts 348°
2026-04-17 12:39 41.13081 -8.65059 2993 ft 222 kts 348°
2026-04-17 12:39 41.14561 -8.65447 2634 ft 211 kts 348°
2026-04-17 12:39 41.15974 -8.65815 2235 ft 205 kts 348°
2026-04-17 12:40 41.17356 -8.66177 1788 ft 200 kts 348°
2026-04-17 12:40 41.18707 -8.66524 1326 ft 196 kts 347°
2026-04-17 12:40 41.20019 -8.66867 945 ft 188 kts 347°
2026-04-17 12:40 41.21234 -8.67186 693 ft 170 kts 346°
2026-04-17 12:41 41.22357 -8.67478 461 ft 160 kts 345°
2026-04-17 12:41 41.23409 -8.67761 254 ft 147 kts 346°
2026-04-17 12:41 41.24321 -8.68003 219 ft 117 kts 347°
2026-04-17 12:41 41.24930 -8.68157 200 ft 68 kts 352°
2026-04-17 12:42 41.25221 -8.68128 186 ft 17 kts 18°
2026-04-17 12:42 41.25285 -8.68084 188 ft 11 kts 58°
2026-04-17 12:42 41.25235 -8.68003 188 ft 15 kts 165°
2026-04-17 12:42 41.25117 -8.67977 199 ft 19 kts 169°
2026-04-17 12:43 41.24977 -8.67943 205 ft 22 kts 169°
2026-04-17 12:43 41.24824 -8.67875 217 ft 25 kts 141°
2026-04-17 12:43 41.24655 -8.67796 217 ft 28 kts 172°
2026-04-17 12:43 41.24453 -8.67746 228 ft 31 kts 169°
2026-04-17 12:44 41.24277 -8.67664 238 ft 25 kts 123°
2026-04-17 12:44 41.24139 -8.67561 243 ft 24 kts 170°
2026-04-17 12:44 41.23966 -8.67518 243 ft 26 kts 169°
2026-04-17 12:44 41.23784 -8.67465 244 ft 22 kts 166°
2026-04-17 12:45 41.23775 -8.67391 247 ft 9 kts 47°
2026-04-17 12:45 41.23791 -8.67368 249 ft 0 kts 49°